Location: Heisler
(52.6701°N, 112.2239°W)
Time: 14:02:11
(UTC+00:00)

Envisat - Pass Details

Date: 02 December 2021
Orbit: 764 x 766 km, 98.2° (Epoch: 26 January)

Event Time Altitude Azimuth Distance (km) Brightness Sun altitude
Rises 13:24:22 0° 11° (N) 3,249 6.2 -16.5°
Reaches altitude 10° 13:26:45 10° 6° (N) 2,318 5.4 -16.1°
Maximum altitude 13:31:38 48° 293° (WNW) 1,005 3.2 -15.4°
Drops below altitude 10° 13:36:29 10° 221° (SW) 2,301 5.2 -14.7°
Sets 13:38:50 0° 215° (SW) 3,223 6.1 -14.4°
